Weather History for Rome, NY

Change the Weather History Date:

Saturday, May 10, 2014

  Actual Average Record
Temperature  
Mean Temperature 66 °F -  
Max Temperature 75 °F 70 °F 86 °F (1993)
Min Temperature 53 °F 45 °F 36 °F (1986)
Cooling Degree Days 1    
Growing Degree Days 16 (Base 50)    
Moisture  
Dew Point 54 °F    
Average Humidity 73    
Maximum Humidity 97    
Minimum Humidity 42    
Precipitation  
Precipitation 0.57 in - - ()
Sea Level Pressure  
Sea Level Pressure 29.84 in    
Wind  
Wind Speed 8 mph (WSW)    
Max Wind Speed 18 mph    
Max Gust Speed 25 mph    
Visibility 8 miles    
Events Rain    
Averages and records for this station are not official NWS values.
T = Trace of Precipitation, MM = Missing Value Source: NWS Daily Summary

Daily Weather History Graph

Daily Weather History Graph

Search for Another Location

Airport:

Trip Planner

Search our weather history database for the weather conditions in past years. The results will help you decide how hot, cold, wet, or windy it might be!

Date:

Astronomy

May. 10, 2014 Rise Set
Actual Time 5:43 AM EDT 8:13 PM EDT
Civil Twilight 5:11 AM EDT 8:45 PM EDT
Nautical Twilight 4:31 AM EDT 9:26 PM EDT
Astronomical Twilight 3:45 AM EDT 10:11 PM EDT
Moon 4:00 PM EDT (5/10) 3:22 AM EDT (5/10)
Length of Visible Light 15h 34m
Length of Day
14h 30m
Waxing Gibbous, 82% of the Moon is Illuminated
May 10
Waxing Gibbous
May 14
Full
May 21
Last Quarter
May 28
New
Jun 5
First Quarter

Hourly Weather History & Observations

Time (EDT) Temp. Dew Point Humidity Pressure Visibility Wind Dir Wind Speed Gust Speed Precip Events Conditions
12:53 AM 62.1 °F 57.0 °F 84% 29.86 in 10.0 mi ESE 10.4 mph - 0.02 in Rain Light Rain
1:53 AM 61.0 °F 57.9 °F 90% 29.84 in 5.0 mi East 8.1 mph - 0.06 in Rain Rain
2:20 AM 61.0 °F 59.0 °F 93% 29.85 in 5.0 mi ESE 6.9 mph - 0.02 in Rain Rain
2:28 AM 61.0 °F 59.0 °F 93% 29.84 in 4.0 mi SE 4.6 mph - 0.04 in Rain Rain
2:53 AM 61.0 °F 59.0 °F 93% 29.83 in 8.0 mi ESE 4.6 mph - 0.04 in Rain Light Rain
3:53 AM 60.1 °F 59.0 °F 96% 29.84 in 2.5 mi SE 3.5 mph - 0.20 in Rain Heavy Rain
4:02 AM 61.0 °F 59.0 °F 93% 29.84 in 3.0 mi Calm Calm - 0.03 in Rain Heavy Rain
4:17 AM 61.0 °F 59.0 °F 93% 29.84 in 4.0 mi East 5.8 mph - 0.08 in Rain Heavy Rain
4:53 AM 61.0 °F 59.0 °F 93% 29.81 in 4.0 mi ESE 6.9 mph - 0.15 in Rain Heavy Rain
5:07 AM 61.0 °F 59.0 °F 93% 29.82 in 5.0 mi East 6.9 mph - 0.01 in Rain Light Rain
5:28 AM 61.0 °F 60.1 °F 97% 29.83 in 2.5 mi Calm Calm - 0.09 in Rain Rain
5:35 AM 61.0 °F 60.1 °F 97% 29.83 in 4.0 mi ESE 3.5 mph - 0.10 in Rain Light Rain
5:43 AM 61.0 °F 60.1 °F 97% 29.82 in 6.0 mi East 5.8 mph - 0.10 in Rain Light Rain
5:53 AM 61.0 °F 59.0 °F 93% 29.81 in 7.0 mi SE 5.8 mph - 0.10 in Rain Light Rain
7:53 AM 64.9 °F 61.0 °F 87% 29.84 in 8.0 mi Calm Calm - N/A   Clear
8:53 AM 66.9 °F 61.0 °F 81% 29.84 in 10.0 mi West 6.9 mph - N/A   Partly Cloudy
9:53 AM 68.0 °F 57.0 °F 68% 29.85 in 10.0 mi West 11.5 mph 20.7 mph N/A   Mostly Cloudy
10:53 AM 71.1 °F 55.9 °F 59% 29.85 in 10.0 mi West 16.1 mph 23.0 mph N/A   Partly Cloudy
11:53 AM 73.0 °F 55.9 °F 55% 29.84 in 10.0 mi WSW 15.0 mph 21.9 mph N/A   Mostly Cloudy
12:53 PM 73.9 °F 54.0 °F 50% 29.83 in 10.0 mi WNW 16.1 mph 24.2 mph N/A   Clear
1:53 PM 75.0 °F 54.0 °F 48% 29.81 in 10.0 mi West 15.0 mph 23.0 mph N/A   Partly Cloudy
2:53 PM 75.9 °F 53.1 °F 45% 29.80 in 10.0 mi WNW 18.4 mph 25.3 mph N/A   Scattered Clouds
3:53 PM 73.0 °F 54.0 °F 51% 29.79 in 10.0 mi West 13.8 mph - N/A   Partly Cloudy
4:53 PM 73.0 °F 50.0 °F 44% 29.79 in 10.0 mi West 11.5 mph 23.0 mph N/A   Partly Cloudy
5:53 PM 69.1 °F 48.9 °F 49% 29.80 in 10.0 mi NW 15.0 mph - N/A   Clear
6:53 PM 66.0 °F 42.1 °F 42% 29.81 in 10.0 mi NW 15.0 mph - N/A   Clear
7:53 PM 61.0 °F 39.0 °F 44% 29.84 in 10.0 mi NW 11.5 mph - N/A   Clear
8:53 PM 59.0 °F 39.9 °F 49% 29.87 in 10.0 mi WNW 6.9 mph - N/A   Clear
9:53 PM 57.0 °F 39.9 °F 53% 29.89 in 10.0 mi WNW 5.8 mph - N/A   Clear
10:53 PM 57.0 °F 39.9 °F 53% 29.90 in 10.0 mi NW 3.5 mph - N/A   Clear
11:53 PM 53.1 °F 42.1 °F 66% 29.91 in 10.0 mi Calm Calm - N/A   Clear